Location: ??? ????
(38.0580°N, 23.1536°E)
Time: 13:32:10
(UTC+00:00)

Cosmos 2221 - Pass Details

Date: 13 December 2025
Orbit: 569 x 590 km, 82.5° (Epoch: 17 January)

Event Time Altitude Azimuth Distance (km) Brightness Sun altitude
Rises 16:35:03 0° 158° (SSE) 2,792 5.9 -16.5°
Reaches altitude 10° 16:37:31 10° 145° (SE) 1,894 4.9 -17.0°
Enters shadow 16:39:04 18° 128° (SE) 1,435 4.1 -17.3°
